Tracking 17140 objects as of 30-May-2015
HD Live streaming from Space Station

BEIDOU 1B

Track BEIDOU 1B now!
BEIDOU 1B is classified as:


NORAD ID: 26643
Int'l Code: 2000-082A
Perigee: 35,733.4 km
Apogee: 36,432.0 km
Inclination: 6.8 °
Period: 1,450.9 minutes
Semi major axis: 42453 km
RCS: 0.1238 m2 (medium)
Launch date: December 20, 2000
Source: People's Republic of China (PRC)

Space-bsaed navigation and positioning system to improve accuracy of weapons and situational awareness of military forces.
Your satellite tracking list
Your tracking list is empty





NASA's NSSDC Master Catalog

Two Line Element Set (TLE):
1 26643U 00082A   15149.99284767  .00000087  00000-0  00000+0 0  9997
2 26643 006.7588 054.4227 0082277 350.8897 247.0535 00.99249906 52794

Source of the keplerian elements: AFSPC

N2YO: 398